カタログに戻る

STARLINK-33575

運用中通信VLEO
NORAD 62760·PAYLOAD·🇺🇸 United States

打ち上げ Jan 21, 2025 から Vandenberg Space Force Base

Loading…

次のパス (今後24時間)

TLE

最新Source: CelesTrak SupGP

元期: Sep 14, 2026, 21:23 UTC

1 62760C 25015C   26257.89145833 -.00055428  00000+0 -16374-2 0  2572
2 62760  53.1565 159.7673 0001206  86.0203 249.1771 15.34423022    12

AllMySatでSTARLINK-33575をリアルタイム追跡

Download on the App Store